Torna al catalogo

STARLINK-4677

AttivoComunicazioniVLEO
NORAD 53600·PAYLOAD·🇺🇸 United States

Lanciato Aug 28, 2022 da Cape Canaveral Space Force Station

Loading…

Prossimi Passaggi (prossime 24 ore)

TLE

AggiornatoSource: CelesTrak SupGP

Epoca: Sep 15, 2026, 01:47 UTC

1 53600C 22104N   26258.07479167  .00032486  00000+0  96026-3 0  2583
2 53600  53.1582 101.2860 0001544  74.9574  38.8814 15.34358939    11

Traccia STARLINK-4677 in tempo reale con AllMySat

Download on the App Store